Regional Weather Roundup
Issued by NWS

Home | Current Version | Previous Version | Graphics & Text | Print | Product List | Glossary Off
Versions: 1 2 3 4 5 6 7 8 9 10 11 12 13 14 15 16 17 18 19 20 21 22 23 24 25 26 27 28 29 30 31 32 33 34 35 36 37 38 39 40 41 42 43 44 45 46 47 48 49 50

000
ASUS43 KMKX 130510
RWRWI

WISCONSIN REGIONAL WEATHER ROUNDUP
NATIONAL WEATHER SERVICE MILWAUKEE/SULLIVAN WI
1100 PM CST TUE DEC 12 2017

NOTE: "FAIR" INDICATES FEW OR NO CLOUDS BELOW 12,000 FEET WITH NO
SIGNIFICANT WEATHER AND/OR OBSTRUCTIONS TO VISIBILITY.

WIZ001-002-006>008-014>016-023>028-130600-
NORTHWEST WISCONSIN

CITY           SKY/WX    TMP DP  RH WIND       PRES   REMARKS
SUPERIOR ARPT  CLOUDY    15  10  81 E3        29.70F
ASHLAND        CLOUDY    13   8  81 SE5       29.73F WCI   5
HAYWARD        CLOUDY    14   8  77 SE5       29.68F WCI   6
SIREN          CLOUDY    17  12  80 SE8       29.65F WCI   7
CUMBERLAND     CLOUDY    14  10  85 SE8       29.67F WCI   3
RICE LAKE      CLOUDY    15  11  85 SE12      29.71F WCI   2
CHETEK         CLOUDY    15  10  83 SE10      29.71F WCI   2
LADYSMITH      CLOUDY    14  10  85 SE8       29.73F WCI   3
EAU CLAIRE     CLOUDY    18  11  74 SE8       29.72F WCI   8
MENOMONIE      CLOUDY    19  14  79 E7        29.71F WCI  10
NEW RICHMOND   CLOUDY    21  15  79 SE9       29.65F WCI  11
OSCEOLA        MOCLDY    21  16  81 SE8       29.67F WCI  11
$$

WIZ003>005-009-010-017-018-130600-
NORTH CENTRAL WISCONSIN

CITY           SKY/WX    TMP DP  RH WIND       PRES   REMARKS
MANITOWISH WTR FLURRIES   9   7  91 S6        29.71F WCI  -1
ARBOR VITAE    FLURRIES  11   8  85 S6        29.72F WCI   2
WOODRUFF       FLURRIES  11   8  85 S6        29.72F WCI   2
RHINELANDER    LGT SNOW  10   7  87 S7        29.74F FOG     WCI  -1
EAGLE RIVER    CLOUDY    10   3  73 CALM      29.73F
LAND O LAKES   CLOUDY    10   4  78 CALM      29.73F
PHILLIPS       FLURRIES  10   6  83 SE8       29.72F WCI  -2
TOMAHAWK       LGT SNOW  10   7  85 CALM      29.76F
MEDFORD        LGT SNOW  11   9  89 SE6       29.74F WCI   2
MERRILL        LGT SNOW  11   7  82 S3        29.79F
$$

WIZ029-030-035-036-043>047-130600-
CENTRAL WISCONSIN

CITY           SKY/WX    TMP DP  RH WIND       PRES   REMARKS
WAUSAU         LGT SNOW  12   7  80 S6        29.78F WCI   3
MOSINEE        NOT AVBL
MARSHFIELD     CLOUDY    13   9  84 SE8       29.75F WCI   2
STEVENS POINT  CLOUDY    12   5  74 CALM      29.82F
WAUPACA        LGT SNOW  17   8  66 CALM      29.86F
WAUTOMA        FLURRIES  15   7  70 SE5       29.86F WCI   8
WISC RAPIDS    CLOUDY    15   8  73 SE6       29.83F WCI   6
CAMP DOUGLAS   CLOUDY    19  12  73 SE7       29.80F WCI  10
$$

WIZ011>013-019>022-031-037>040-048>050-130600-
NORTHEAST WISCONSIN

CITY           SKY/WX    TMP DP  RH WIND       PRES   REMARKS
ANTIGO         LGT SNOW  10   6  82 SW6       29.78F WCI   0
SHAWANO        CLOUDY    17   3  55 CALM      29.85F
OCONTO         CLOUDY    12   7  80 CALM      29.87F
STURGEON BAY   PTCLDY    14   5  67 S3        29.87F
GREEN BAY      CLOUDY    16   3  56 SW3       29.87F
MANITOWOC      CLOUDY    15   4  61 W6        29.89F WCI   6
APPLETON       CLOUDY    16   0  48 SW3       29.85F
CLINTONVILLE   FLURRIES  16   1  53 SW5       29.86F WCI   9
OSHKOSH        CLOUDY    16   4  59 SW5       29.87F WCI   9
$$

WIZ032>034-041-042-053>061-130600-
SOUTHWEST WISCONSIN

CITY           SKY/WX    TMP DP  RH WIND       PRES   REMARKS
LA CROSSE      CLOUDY    25  14  63 S12       29.78F WCI  14
SPARTA         CLOUDY    22  13  67 S3        29.79F
VIROQUA        CLOUDY    21  14  73 S8        29.78F WCI  12
BOSCOBEL       CLOUDY    26  11  52 S5        29.84F WCI  20
PRAIRIE DU CHI CLOUDY    28  13  54 CALM      29.82F
PLATTEVILLE    CLOUDY    24  14  65 S8        29.84F WCI  15
$$

WIZ056-057-062-063-064-067-068-130600-
SOUTH CENTRAL WISCONSIN

CITY           SKY/WX    TMP DP  RH WIND       PRES   REMARKS
REEDSBURG      CLOUDY    19  10  67 CALM      29.83F
BARABOO/DELLS  CLOUDY    19  10  68 S6        29.83F WCI  11
LONE ROCK      CLOUDY    21  13  71 E5        29.85F WCI  15
MINERAL POINT  CLOUDY    27  12  54 S9        29.82F WCI  17
MADISON        FLURRIES  20   9  62 S8        29.87F WCI  10
MIDDLETON      CLOUDY    22  11  63 S7        29.86F WCI  14
WATERTOWN      FLURRIES  18   7  62 S3        29.88F
MONROE         CLOUDY    23  10  58 S7        29.86F WCI  15
JANESVILLE     CLOUDY    23  10  58 SW3       29.89F
$$

WIZ051-052-058>065-066-070>072-130600-
SOUTHEAST WISCONSIN

CITY           SKY/WX    TMP DP  RH WIND       PRES   REMARKS
MILWAUKEE      CLOUDY    20   3  48 W6        29.91F WCI  12
WAUKESHA       CLOUDY    18   5  57 SW3       29.89F
MILWAUKEE/TIMM CLOUDY    19   1  45 W5        29.91F WCI  13
RACINE         CLOUDY    19   4  51 W3        29.92F
BURLINGTON       N/A    N/A N/A N/A MISG        N/A
KENOSHA        CLOUDY    20   5  52 W5        29.91F WCI  13
FOND DU LAC    CLOUDY    17   3  54 W5        29.88F WCI  10
SHEBOYGAN      CLOUDY    16   4  59 W5        29.88F WCI   9
WEST BEND      MOCLDY    18   3  53 W3        29.88F
JUNEAU         FLURRIES  16   6  65 CALM      29.88F
$$

LSZ147-162-130600-
LAKE SUPERIOR

STATION/POSITION TIME  TEMP    WIND        PRES    WAVE
                       AIR SEA DIR/SP/G            HT/PER
                 (UTC) (F)     (DEG/KT/KT) (MB)    (FT/S)
DEVILS ISLAND    0500   16     170/  8/ 13 1008.1F
SAXON HARBOR     0440   13                 1007.5F
$$

LMZ867-665-643>646-130600-
LAKE MICHIGAN

STATION/POSITION TIME  TEMP    WIND        PRES    WAVE
                       AIR SEA DIR/SP/G            HT/PER
                 (UTC) (F)     (DEG/KT/KT) (MB)    (FT/S)
NORTHPORT PIER   0439   17     290/  2/ 10 1011.5F
KEWAUNEE LAKESHO 0442   14     260/  4/  6 1011.5F
SHEBOYGAN LAKESH 0500   17     280/  5/  7 1013.4F
PORT WASHINGTON  0430   18     310/  3/  6 1014.2F
MILWAUKEE LAKESH 0450   19     280/  6/  8   N/A
KENOSHA   LAKESH 0500   19     250/  5/  7 1013.2
$$

TC  - TEMPERATURE IN CELSIUS
VSB - VISIBILITY IN STATUTE MILES
WCI - WIND CHILL INDEX
HX  - HEAT INDEX





USA.gov is the U.S. government's official web portal to all federal, state and local government web resources and services.